千帆星座-218(QIANFAN-218)

导读

QIANFAN-218(NORAD 69817)是我国上海垣信卫星科技有限公司“千帆星座”的第218颗组网卫星,于2026年7月4日由长征六号甲运载火箭在太原卫星发射中心发射入轨,为低轨通信卫星。该星属于国内商业化运营的低轨卫星互联网星座序列,使用Ku、Q/V频段,主要承担宽带通信、互联网接入服务,可提供低时延、广覆盖的天基网络支撑,发射后已顺利进入预定轨道,当前在轨运行状态稳定,是千帆星座规模化部署阶段的重要组成节点。

基本信息
目录编号:
69817
目录名称:
QIANFAN-218
国际标识:
2026-153T
轨道中心:
EARTH
卫星名称:
千帆星座-218
卫星全名:
千帆星座-218(QIANFAN-218)
卫星状态:
在轨 (已飞行63 天)
发射日期:
2026-07-04 UTC
国别 :
中国 (CN)
星等 :
--
轨道信息
数据来源 国际轨道数据 AOE轨道数据
星历时间 2026-09-05T04:36:51+0800
11小时前
查看轨道信息
2026-08-30T04:00:00+0800
6天前
查看轨道信息
半长轴 7180.422km 7180.439km
偏心率 0.0008472 0.0009157
轨道倾角 88.998° 88.998°
近地点辐角 43.811° 60.625°
升交点赤经 353.089° 353.782°
平近点角 316.375° 328.055°
近地点 796.201km 795.726km
远地点 808.369km 808.878km
周期 100.922分钟 100.922分钟
每日圈数 14.268484 14.268433
详细信息
卫星平台:
218
覆盖范围:
全球
运营商:
上海垣信卫星科技有限公司
运营商所在国:
中国
使用方式:
暂无
卫星简介
千帆星座,也被称为“G60星链”计划,是中国版“星链”的重要组成部分,旨在打造一个由1.4万多颗低轨宽频多媒体卫星构成的庞大星座。千帆星座计划由上海垣信卫星科技有限公司负责实施,于2023年启动建设。该项目是我国第二个低轨卫星大星座,旨在通过构建庞大的卫星网络,为全球用户提供高质量的通信和宽带互联网服务。
2D轨道图
3D轨道图
轨道高度分析图
轨道倾角分析图
轨道综合分析图
查看轨道综合分析图
交会数据列表
事件ID 空间交会对象 最接近时刻(TCA) 交会距离 交会风险概率(CRP) 交会风险指数(CRI) 操作
CDM_260904-215502-084906-981724
CZ-4 DEB (20849)
2026-09-04T
21:55:22+0000
0.729 km
远距离
7.054722E-5 中风险 0.72
CDM_260905-194506-067606-981722
2026-09-05T
19:45:03+0000
1.463 km
极远距离
5.834874E-6 低风险 0.5
CDM_260830-171002-266506-981721
2026-08-30T
17:10:39+0000
2.407 km
极远距离
1.846315E-6 低风险 0.4